Location: La Estación
(39.9833°N, 3.9500°W)
Time: 15:13:23
(UTC+00:00)

Cosmos 1818 - Pass Details

Date: 14 June 2025
Orbit: 776 x 795 km, 65.0° (Epoch: 19 July)

Event Time Altitude Azimuth Distance (km) Brightness Sun altitude
Rises 20:54:16 0° 201° (SSW) 3,265 6.5 -11.2°
Reaches altitude 10° 20:56:41 10° 199° (SSW) 2,343 5.8 -11.5°
Maximum altitude 21:02:01 65° 118° (ESE) 867 3.5 -12.2°
Drops below altitude 10° 21:07:24 10° 37° (NE) 2,367 6.2 -12.9°
Sets 21:09:51 0° 35° (NE) 3,302 6.9 -13.3°
